sat.trackr.live / text

‹ back to catalog

STARLINK-37130

NORAD 68604 · 2026-073C

PAYLOAD ACTIVE UNKNOWN

§ Identity

Operator
Country
US
Launch date
2026-04-07
Launch site
AFWTR
Launch vehicle
Mass (kg)
RCS (m²)

Purposes: comms

External: N2YO · Heavens-Above · Gunter

§ Orbital elements

Epoch: 2026-09-20T00:35:15.154080Z

Period
93.91 min
Inclination
97.2832°
Eccentricity
0.0000597
Mean motion
15.33464092 rev/d
Perigee alt
465.1 km
Apogee alt
465.9 km
Semi-major
6,843.6 km
B*
4.6842e-4
RAAN
100.9892°
Arg perigee
33.5202°
Mean anomaly
326.6078°
Rev number
2,566

§ Raw data

STARLINK-371301 68604U 26073C   26263.02448095  .00015087  00000+0  46842-3 0  99902 68604  97.2832 100.9892 0000597  33.5202 326.6078 15.33464092 25660

JSON: /api/v1/satellites/68604 · /tle

For live sub-satellite position, see the globe view (requires WebGL).

§ Visibility from observer

Set your observer location to see the next 7 days of passes ≥ 10°. The values pass through the URL so the page stays shareable.

No JS? Fill the form by hand. The geolocation button needs JavaScript.